Regional Weather Roundup
Issued by NWS

Home | Current Version | Previous Version | Graphics & Text | Print | Product List | Glossary On
Versions: 1 2 3 4 5 6 7 8 9 10 11 12 13 14 15 16 17 18 19 20 21 22 23 24 25 26 27 28 29 30 31 32 33 34 35 36 37 38 39 40 41 42 43 44 45 46 47 48 49 50
686
ASUS43 KBIS 261610
RWRND

NORTH DAKOTA REGIONAL WEATHER ROUNDUP
NATIONAL WEATHER SERVICE BISMARCK ND
1100 AM CDT WED JUL 26 2017

NOTE: "FAIR" INDICATES FEW OR NO CLOUDS BELOW 12,000 FEET WITH NO
SIGNIFICANT WEATHER AND/OR OBSTRUCTIONS TO VISIBILITY.


NDZ001>003-009>011-017-261700-
NORTHWEST NORTH DAKOTA

CITY           SKY/WX    TMP DP  RH WIND       PRES   REMARKS
WILLISTON      SUNNY     79  53  40 CALM      30.15S
MINOT          SUNNY     76  57  51 NW8       30.15R
MINOT AFB      SUNNY     74  56  55 NW8       30.13S
$$

NDZ018>021-031>035-040>046-261700-
SOUTHWEST NORTH DAKOTA

CITY           SKY/WX    TMP DP  RH WIND       PRES   REMARKS
BISMARCK       SUNNY     81  56  42 N8        30.13R
DICKINSON      SUNNY     79  54  41 E7        30.14S
GARRISON         N/A     77  55  46 VRB7G17   30.14R
HETTINGER ARPT SUNNY     80  49  33 E6        30.17R
$$

NDZ004>008-012>016-024-026-027-054-261700-
NORTHEAST NORTH DAKOTA

CITY           SKY/WX    TMP DP  RH WIND       PRES   REMARKS
GRAND FORKS    MOSUNNY   76  63  64 NW13      30.05R
GRND FRKS AFB  SUNNY     76  62  62 N10       30.06R
DEVILS LAKE    SUNNY     71  60  68 N16       30.11S
$$

NDZ022-023-025-028>030-036>039-047>053-261700-
SOUTHEAST NORTH DAKOTA

CITY           SKY/WX    TMP DP  RH WIND       PRES   REMARKS
FARGO          MOSUNNY   77  62  59 N13       30.06R
JAMESTOWN      SUNNY     78  58  49 NW15      30.10R
$$





USA.gov is the U.S. government's official web portal to all federal, state and local government web resources and services.